Regional Weather Roundup
Issued by NWS

Home | Current Version | Previous Version | Text Only | Print | Product List | Glossary On
Versions: 1 2 3 4 5 6 7 8 9 10 11 12 13 14 15 16 17 18 19 20 21 22 23 24 25 26 27 28 29 30 31 32 33 34 35 36 37 38 39 40 41 42 43 44 45 46 47 48 49 50
000
ASUS43 KOAX 290502
RWRNE

WEATHER ROUNDUP FOR NEBRASKA
NATIONAL WEATHER SERVICE OMAHA NE
1200 AM CDT MON MAY 29 2017

NOTES: SATELLITE DATA IS BEING USED TO AUGMENT CLOUD COVER ABOVE
       12000 FEET.
       "FAIR" INDICATES FEW OR NO CLOUDS BELOW 12,000 FEET WITH NO
       SIGNIFICANT WEATHER AND/OR OBSTRUCTIONS TO VISIBILITY.

  * THESE STATIONS DO NOT REPORT WEATHER SUCH AS RAIN...SNOW OR FOG.

NEZ001>004-019>022-054>056-290600-
NEBRASKA PANHANDLE

CITY           SKY/WX    TMP DP  RH WIND       PRES   REMARKS
SCOTTSBLUFF    CLOUDY    50  45  83 SW7       30.21R
ALLIANCE       CLOUDY    45  43  93 W7        30.14S
CHADRON        CLOUDY    51  46  83 W12       30.11F
GORDON         FAIR      50  46  85 W8        30.09S
KIMBALL        CLEAR     51  44  77 NW7       30.24S
SIDNEY         CLOUDY    49  44  83 NE7       30.22R
$$

NEZ057>060-069>072-079>082-290600-
SOUTHWEST NEBRASKA

CITY           SKY/WX    TMP DP  RH WIND       PRES   REMARKS
NORTH PLATTE   CLEAR     51  47  86 W7        30.09F
IMPERIAL       CLEAR     56  45  66 N16       30.15R
LEXINGTON      CLEAR     55  48  75 NW8       30.06S
MCCOOK         MOCLDY    57  48  72 NW6       30.08R
OGALLALA       PTCLDY    52  46  79 W6        30.12F
$$

NEZ005>010-023>029-035>040-094-290600-
NORTH CENTRAL NEBRASKA

CITY           SKY/WX    TMP DP  RH WIND       PRES   REMARKS
VALENTINE      CLEAR     53  46  77 W8        30.02R
AINSWORTH      CLOUDY    55  49  82 W13       30.01S
BROKEN BOW     CLEAR     55  46  71 W3        30.03R
O`NEILL        CLEAR     59  44  57 W12       29.95F
ORD            PTCLDY    56  45  66 NW7       29.98R
THEDFORD       MOCLDY    53  47  80 W8        30.05S
$$

NEZ041-046>049-061>064-073>077-083>087-290600-
SOUTH CENTRAL NEBRASKA

CITY           SKY/WX    TMP DP  RH WIND       PRES   REMARKS
GRAND ISLAND   PTCLDY    61  45  55 W9        29.99R
AURORA         PTCLDY    64  43  47 NW12      29.97R
HASTINGS       MOCLDY    64  45  49 NW14      30.01R
HEBRON         CLEAR     57  52  82 W5        29.96S
HOLDREGE       CLOUDY    61  47  61 NW9       30.04R
KEARNEY *      PTCLDY    61  43  51 NW9       30.03S
$$

NEZ011>018-030>034-042>045-290600-
NORTHEAST NEBRASKA

CITY           SKY/WX    TMP DP  RH WIND       PRES   REMARKS
NORFOLK        MOCLDY    61  42  49 W9        29.92S
ALBION         CLOUDY    60  45  56 NW5       29.95S
BLAIR          CLEAR     64  40  41 SW5       29.88F
FREMONT        CLEAR     60  45  56 CALM      29.89F
TEKAMAH        CLOUDY    62  40  44 W10       29.86F
WAYNE          CLOUDY    64  44  49 NW5       29.91R
$$

NEZ050>053-065>068-078-088>093-290600-
SOUTHEAST NEBRASKA

CITY           SKY/WX    TMP DP  RH WIND       PRES   REMARKS
LINCOLN        CLEAR     61  46  57 CALM      29.91F
OMAHA EPPLEY   CLEAR     61  46  57 SE3       29.88F
BEATRICE       CLEAR     59  47  64 SW3       29.93S
FALLS CITY     CLEAR     61  45  55 SW6       29.91S
NEBRASKA CITY  CLEAR     61  41  48 W8        29.90F
PLATTSMOUTH    PTCLDY    65  41  41 SW6       29.89F
$$

NEZ044-045-051>053-067-290600-
OMAHA AREA

CITY           SKY/WX    TMP DP  RH WIND       PRES   REMARKS
OMAHA EPPLEY   CLEAR     61  46  57 SE3       29.88F
BLAIR          CLEAR     64  40  41 SW5       29.88F
FREMONT        CLEAR     60  45  56 CALM      29.89F
MILLARD        PTCLDY    59  48  66 CALM      29.89F
OFFUTT AFB     PTCLDY    54  46  75 W3        29.87F
PLATTSMOUTH    PTCLDY    65  41  41 SW6       29.89F
WAHOO          FAIR      60  43  52 SW6       29.90S
$$




USA.gov is the U.S. government's official web portal to all federal, state and local government web resources and services.